Time,TemperatureF,DewpointF,PressureIn,WindDirection,WindDirectionDegrees,WindSpeedMPH,WindSpeedGustMPH,Humidity,HourlyPrecipIn,Conditions,Clouds,dailyrainin,SoftwareType,DateUTC
2013-04-26 00:00:00,43.6,35.9,30.30,West,279,2.0,2.0,74,0.00,,---,0.00,VWS V14.00,2013-04-26 04:00:00,
2013-04-26 00:01:00,43.9,35.8,30.30,West,279,0.0,1.0,73,0.00,,---,0.00,VWS V14.00,2013-04-26 04:01:00,
2013-04-26 00:02:00,43.9,35.8,30.30,West,279,0.0,1.0,73,0.00,,---,0.00,VWS V14.00,2013-04-26 04:02:00,
2013-04-26 00:03:00,43.8,35.7,30.30,West,279,0.0,1.0,73,0.00,,---,0.00,VWS V14.00,2013-04-26 04:03:00,
2013-04-26 00:08:00,43.5,35.8,30.30,West,279,0.0,1.0,74,0.00,,---,0.00,VWS V14.00,2013-04-26 04:08:00,
2013-04-26 00:13:00,43.3,35.9,30.30,West,279,1.0,1.0,75,0.00,,---,0.00,VWS V14.00,2013-04-26 04:13:00,
2013-04-26 00:18:00,43.2,35.8,30.30,West,279,1.0,2.0,75,0.00,,---,0.00,VWS V14.00,2013-04-26 04:18:00,
2013-04-26 00:23:00,43.3,36.3,30.30,West,279,0.0,2.0,76,0.00,,---,0.00,VWS V14.00,2013-04-26 04:23:00,
2013-04-26 00:28:00,43.1,36.1,30.30,West,279,0.0,2.0,76,0.00,,---,0.00,VWS V14.00,2013-04-26 04:28:00,
2013-04-26 00:30:00,42.8,36.1,30.30,West,279,2.0,2.0,77,0.00,,---,0.00,VWS V14.00,2013-04-26 04:30:00,
2013-04-26 00:34:00,42.8,36.1,30.30,West,279,0.0,2.0,77,0.00,,---,0.00,VWS V14.00,2013-04-26 04:34:00,
2013-04-26 00:39:00,42.8,36.1,30.30,West,279,0.0,2.0,77,0.00,,---,0.00,VWS V14.00,2013-04-26 04:39:00,
2013-04-26 00:44:00,42.9,36.5,30.30,West,279,0.0,2.0,78,0.00,,---,0.00,VWS V14.00,2013-04-26 04:44:00,
2013-04-26 00:49:00,42.8,36.4,30.30,West,279,0.0,2.0,78,0.00,,---,0.00,VWS V14.00,2013-04-26 04:49:00,
2013-04-26 00:54:00,42.6,36.2,30.30,West,279,0.0,2.0,78,0.00,,---,0.00,VWS V14.00,2013-04-26 04:54:00,
2013-04-26 00:59:00,42.4,36.4,30.30,West,279,0.0,2.0,79,0.00,,---,0.00,VWS V14.00,2013-04-26 04:59:00,
2013-04-26 01:00:00,42.2,36.5,30.30,West,279,0.0,2.0,80,0.00,,---,0.00,VWS V14.00,2013-04-26 05:00:00,
2013-04-26 01:04:00,42.2,36.5,30.30,West,279,0.0,2.0,80,0.00,,---,0.00,VWS V14.00,2013-04-26 05:04:00,
2013-04-26 01:09:00,42.0,36.3,30.30,West,279,0.0,0.0,80,0.00,,---,0.00,VWS V14.00,2013-04-26 05:09:00,
2013-04-26 01:14:00,41.9,36.2,30.30,West,279,0.0,1.0,80,0.00,,---,0.00,VWS V14.00,2013-04-26 05:14:00,
2013-04-26 01:19:00,41.7,36.3,30.30,West,279,0.0,2.0,81,0.00,,---,0.00,VWS V14.00,2013-04-26 05:19:00,
2013-04-26 01:24:00,41.6,36.2,30.31,West,279,0.0,2.0,81,0.00,,---,0.00,VWS V14.00,2013-04-26 05:24:00,
2013-04-26 01:29:00,41.5,36.1,30.31,West,279,0.0,2.0,81,0.00,,---,0.00,VWS V14.00,2013-04-26 05:29:00,
2013-04-26 01:30:00,41.4,36.3,30.31,West,279,0.0,2.0,82,0.00,,---,0.00,VWS V14.00,2013-04-26 05:30:00,
2013-04-26 01:34:00,41.5,36.4,30.31,West,279,0.0,2.0,82,0.00,,---,0.00,VWS V14.00,2013-04-26 05:34:00,
2013-04-26 01:39:00,41.3,36.2,30.31,West,279,0.0,0.0,82,0.00,,---,0.00,VWS V14.00,2013-04-26 05:39:00,
2013-04-26 01:44:00,41.2,36.1,30.31,West,279,0.0,0.0,82,0.00,,---,0.00,VWS V14.00,2013-04-26 05:44:00,
2013-04-26 01:49:00,41.2,36.1,30.31,West,279,1.0,2.0,82,0.00,,---,0.00,VWS V14.00,2013-04-26 05:49:00,
2013-04-26 01:54:00,41.1,36.0,30.31,West,279,0.0,2.0,82,0.00,,---,0.00,VWS V14.00,2013-04-26 05:54:00,
2013-04-26 02:00:00,41.0,36.2,30.31,West,279,2.0,2.0,83,0.00,,---,0.00,VWS V14.00,2013-04-26 06:00:00,
2013-04-26 02:05:00,40.8,36.0,30.31,West,279,0.0,2.0,83,0.00,,---,0.00,VWS V14.00,2013-04-26 06:05:00,
2013-04-26 02:10:00,40.7,36.0,30.31,West,279,0.0,0.0,83,0.00,,---,0.00,VWS V14.00,2013-04-26 06:10:00,
2013-04-26 02:15:00,40.6,35.8,30.31,West,279,2.0,2.0,83,0.00,,---,0.00,VWS V14.00,2013-04-26 06:15:00,
2013-04-26 02:20:00,40.4,35.7,30.31,West,279,0.0,2.0,83,0.00,,---,0.00,VWS V14.00,2013-04-26 06:20:00,
2013-04-26 02:25:00,40.2,35.8,30.31,West,279,2.0,2.0,84,0.00,,---,0.00,VWS V14.00,2013-04-26 06:25:00,
2013-04-26 02:30:00,40.2,35.8,30.31,West,279,0.0,2.0,84,0.00,,---,0.00,VWS V14.00,2013-04-26 06:30:00,
2013-04-26 02:35:00,40.2,35.8,30.31,West,279,0.0,2.0,84,0.00,,---,0.00,VWS V14.00,2013-04-26 06:35:00,
2013-04-26 02:40:00,40.1,35.7,30.31,West,279,0.0,1.0,84,0.00,,---,0.00,VWS V14.00,2013-04-26 06:40:00,
2013-04-26 02:45:00,40.0,35.6,30.31,West,279,1.0,1.0,84,0.00,,---,0.00,VWS V14.00,2013-04-26 06:45:00,
2013-04-26 02:50:00,39.8,35.7,30.31,West,279,1.0,2.0,85,0.00,,---,0.00,VWS V14.00,2013-04-26 06:50:00,
2013-04-26 02:55:00,39.7,35.6,30.31,West,279,2.0,2.0,85,0.00,,---,0.00,VWS V14.00,2013-04-26 06:55:00,
2013-04-26 03:00:00,39.6,35.5,30.31,West,279,0.0,3.0,85,0.00,,---,0.00,VWS V14.00,2013-04-26 07:00:00,
2013-04-26 03:05:00,39.7,35.6,30.31,West,279,0.0,3.0,85,0.00,,---,0.00,VWS V14.00,2013-04-26 07:05:00,
2013-04-26 03:10:00,39.8,35.7,30.31,West,279,0.0,1.0,85,0.00,,---,0.00,VWS V14.00,2013-04-26 07:10:00,
2013-04-26 03:15:00,39.7,35.6,30.30,West,279,0.0,2.0,85,0.00,,---,0.00,VWS V14.00,2013-04-26 07:15:00,
2013-04-26 03:20:00,39.6,35.5,30.31,West,279,1.0,2.0,85,0.00,,---,0.00,VWS V14.00,2013-04-26 07:20:00,
2013-04-26 03:25:00,39.6,35.5,30.31,West,279,0.0,2.0,85,0.00,,---,0.00,VWS V14.00,2013-04-26 07:25:00,
2013-04-26 03:30:00,39.4,35.3,30.31,West,279,1.0,2.0,85,0.00,,---,0.00,VWS V14.00,2013-04-26 07:30:00,
2013-04-26 03:36:00,39.4,35.3,30.31,West,279,0.0,2.0,85,0.00,,---,0.00,VWS V14.00,2013-04-26 07:36:00,
2013-04-26 03:41:00,39.4,35.3,30.31,West,279,0.0,0.0,85,0.00,,---,0.00,VWS V14.00,2013-04-26 07:41:00,
2013-04-26 03:46:00,39.2,35.1,30.32,West,279,0.0,0.0,85,0.00,,---,0.00,VWS V14.00,2013-04-26 07:46:00,
2013-04-26 03:51:00,39.1,35.0,30.32,West,279,0.0,2.0,85,0.00,,---,0.00,VWS V14.00,2013-04-26 07:51:00,
2013-04-26 03:56:00,38.9,35.1,30.32,West,279,0.0,2.0,86,0.00,,---,0.00,VWS V14.00,2013-04-26 07:56:00,
2013-04-26 04:00:00,38.7,34.9,30.32,West,279,0.0,2.0,86,0.00,,---,0.00,VWS V14.00,2013-04-26 08:00:00,
2013-04-26 04:01:00,38.9,35.1,30.32,West,279,1.0,2.0,86,0.00,,---,0.00,VWS V14.00,2013-04-26 08:01:00,
2013-04-26 04:06:00,38.8,35.0,30.32,West,279,0.0,2.0,86,0.00,,---,0.00,VWS V14.00,2013-04-26 08:06:00,
2013-04-26 04:11:00,38.7,34.9,30.32,West,279,0.0,0.0,86,0.00,,---,0.00,VWS V14.00,2013-04-26 08:11:00,
2013-04-26 04:16:00,38.8,35.0,30.32,West,279,1.0,2.0,86,0.00,,---,0.00,VWS V14.00,2013-04-26 08:16:00,
2013-04-26 04:21:00,38.8,35.0,30.32,West,279,0.0,2.0,86,0.00,,---,0.00,VWS V14.00,2013-04-26 08:21:00,
2013-04-26 04:26:00,38.9,35.1,30.32,West,279,1.0,2.0,86,0.00,,---,0.00,VWS V14.00,2013-04-26 08:26:00,
2013-04-26 04:30:00,38.8,35.0,30.33,West,279,0.0,2.0,86,0.00,,---,0.00,VWS V14.00,2013-04-26 08:30:00,
2013-04-26 04:31:00,38.9,35.1,30.33,West,279,0.0,2.0,86,0.00,,---,0.00,VWS V14.00,2013-04-26 08:31:00,
2013-04-26 04:36:00,38.8,35.0,30.33,West,279,0.0,2.0,86,0.00,,---,0.00,VWS V14.00,2013-04-26 08:36:00,
2013-04-26 04:41:00,38.7,34.9,30.33,West,279,0.0,2.0,86,0.00,,---,0.00,VWS V14.00,2013-04-26 08:41:00,
2013-04-26 04:46:00,38.6,34.8,30.33,West,279,0.0,2.0,86,0.00,,---,0.00,VWS V14.00,2013-04-26 08:46:00,
2013-04-26 04:51:00,38.4,34.6,30.34,West,279,0.0,2.0,86,0.00,,---,0.00,VWS V14.00,2013-04-26 08:51:00,
2013-04-26 04:56:00,38.3,34.5,30.34,West,279,0.0,2.0,86,0.00,,---,0.00,VWS V14.00,2013-04-26 08:56:00,
2013-04-26 05:00:00,38.0,34.2,30.35,West,279,0.0,2.0,86,0.00,,---,0.00,VWS V14.00,2013-04-26 09:00:00,
2013-04-26 05:02:00,38.2,34.4,30.34,West,279,1.0,2.0,86,0.00,,---,0.00,VWS V14.00,2013-04-26 09:02:00,
2013-04-26 05:07:00,38.0,34.5,30.35,West,279,0.0,0.0,87,0.00,,---,0.00,VWS V14.00,2013-04-26 09:07:00,
2013-04-26 05:12:00,37.9,34.4,30.35,West,279,1.0,2.0,87,0.00,,---,0.00,VWS V14.00,2013-04-26 09:12:00,
2013-04-26 05:17:00,37.9,34.4,30.35,West,279,1.0,2.0,87,0.00,,---,0.00,VWS V14.00,2013-04-26 09:17:00,
2013-04-26 05:22:00,37.7,34.2,30.35,West,279,0.0,2.0,87,0.00,,---,0.00,VWS V14.00,2013-04-26 09:22:00,
2013-04-26 05:27:00,37.6,34.1,30.35,West,279,0.0,2.0,87,0.00,,---,0.00,VWS V14.00,2013-04-26 09:27:00,
2013-04-26 05:30:00,37.7,34.2,30.35,West,279,0.0,3.0,87,0.00,,---,0.00,VWS V14.00,2013-04-26 09:30:00,
2013-04-26 05:32:00,37.7,34.2,30.35,West,279,2.0,3.0,87,0.00,,---,0.00,VWS V14.00,2013-04-26 09:32:00,
2013-04-26 05:37:00,37.8,34.3,30.35,West,279,1.0,1.0,87,0.00,,---,0.00,VWS V14.00,2013-04-26 09:37:00,
2013-04-26 05:42:00,37.9,34.4,30.35,West,279,0.0,2.0,87,0.00,,---,0.00,VWS V14.00,2013-04-26 09:42:00,
2013-04-26 05:47:00,37.9,34.4,30.35,West,279,0.0,2.0,87,0.00,,---,0.00,VWS V14.00,2013-04-26 09:47:00,
2013-04-26 05:52:00,38.0,34.5,30.35,West,279,1.0,3.0,87,0.00,,---,0.00,VWS V14.00,2013-04-26 09:52:00,
2013-04-26 05:57:00,38.0,34.5,30.35,West,279,2.0,3.0,87,0.00,,---,0.00,VWS V14.00,2013-04-26 09:57:00,
2013-04-26 06:00:00,37.9,34.4,30.36,West,279,0.0,3.0,87,0.00,,---,0.00,VWS V14.00,2013-04-26 10:00:00,
2013-04-26 06:02:00,38.0,34.5,30.36,West,279,2.0,3.0,87,0.00,,---,0.00,VWS V14.00,2013-04-26 10:02:00,
2013-04-26 06:07:00,37.9,34.4,30.36,West,279,0.0,0.0,87,0.00,,---,0.00,VWS V14.00,2013-04-26 10:07:00,
2013-04-26 06:12:00,37.8,34.3,30.36,West,279,0.0,2.0,87,0.00,,---,0.00,VWS V14.00,2013-04-26 10:12:00,
2013-04-26 06:17:00,37.7,34.2,30.35,West,279,0.0,2.0,87,0.00,,---,0.00,VWS V14.00,2013-04-26 10:17:00,
2013-04-26 06:22:00,37.6,34.1,30.35,West,279,0.0,2.0,87,0.00,,---,0.00,VWS V14.00,2013-04-26 10:22:00,
2013-04-26 06:27:00,37.5,34.0,30.36,West,279,0.0,2.0,87,0.00,,---,0.00,VWS V14.00,2013-04-26 10:27:00,
2013-04-26 06:30:00,37.4,33.9,30.38,West,279,1.0,2.0,87,0.00,,---,0.00,VWS V14.00,2013-04-26 10:30:00,
2013-04-26 06:32:00,37.5,34.0,30.37,West,279,0.0,2.0,87,0.00,,---,0.00,VWS V14.00,2013-04-26 10:32:00,
2013-04-26 06:38:00,37.4,33.9,30.38,West,279,1.0,2.0,87,0.00,,---,0.00,VWS V14.00,2013-04-26 10:38:00,
2013-04-26 06:43:00,37.3,34.1,30.37,West,279,0.0,2.0,88,0.00,,---,0.00,VWS V14.00,2013-04-26 10:43:00,
2013-04-26 06:48:00,37.3,34.1,30.37,West,279,1.0,2.0,88,0.00,,---,0.00,VWS V14.00,2013-04-26 10:48:00,
2013-04-26 06:53:00,37.4,34.2,30.37,West,279,0.0,3.0,88,0.00,,---,0.00,VWS V14.00,2013-04-26 10:53:00,
2013-04-26 06:58:00,37.4,34.2,30.37,West,279,0.0,3.0,88,0.00,,---,0.00,VWS V14.00,2013-04-26 10:58:00,
2013-04-26 07:00:00,37.4,34.2,30.37,West,279,2.0,3.0,88,0.00,,---,0.00,VWS V14.00,2013-04-26 11:00:00,
2013-04-26 07:03:00,37.4,34.2,30.36,West,279,1.0,3.0,88,0.00,,---,0.00,VWS V14.00,2013-04-26 11:03:00,
2013-04-26 07:08:00,37.4,34.2,30.37,West,279,1.0,2.0,88,0.00,,---,0.00,VWS V14.00,2013-04-26 11:08:00,
2013-04-26 07:13:00,37.5,34.3,30.36,West,279,0.0,2.0,88,0.00,,---,0.00,VWS V14.00,2013-04-26 11:13:00,
2013-04-26 07:18:00,37.7,34.5,30.37,West,279,0.0,2.0,88,0.00,,---,0.00,VWS V14.00,2013-04-26 11:18:00,
2013-04-26 07:23:00,37.7,34.5,30.37,West,279,1.0,2.0,88,0.00,,---,0.00,VWS V14.00,2013-04-26 11:23:00,
2013-04-26 07:28:00,37.9,34.7,30.37,West,279,0.0,2.0,88,0.00,,---,0.00,VWS V14.00,2013-04-26 11:28:00,
2013-04-26 07:30:00,38.4,35.2,30.37,West,279,1.0,2.0,88,0.00,,---,0.00,VWS V14.00,2013-04-26 11:30:00,
2013-04-26 07:33:00,38.2,35.0,30.36,West,279,1.0,2.0,88,0.00,,---,0.00,VWS V14.00,2013-04-26 11:33:00,
2013-04-26 07:38:00,38.5,35.3,30.37,West,279,0.0,1.0,88,0.00,,---,0.00,VWS V14.00,2013-04-26 11:38:00,
2013-04-26 07:43:00,38.8,35.6,30.37,West,279,2.0,4.0,88,0.00,,---,0.00,VWS V14.00,2013-04-26 11:43:00,
2013-04-26 07:48:00,39.1,35.8,30.36,West,279,0.0,4.0,88,0.00,,---,0.00,VWS V14.00,2013-04-26 11:48:00,
2013-04-26 07:53:00,39.4,36.2,30.36,West,279,2.0,4.0,88,0.00,,---,0.00,VWS V14.00,2013-04-26 11:53:00,
2013-04-26 07:58:00,39.9,36.6,30.35,West,279,0.0,4.0,88,0.00,,---,0.00,VWS V14.00,2013-04-26 11:58:00,
2013-04-26 08:00:00,40.8,37.5,30.35,West,279,0.0,4.0,88,0.00,,---,0.00,VWS V14.00,2013-04-26 12:00:00,
2013-04-26 08:04:00,40.5,37.2,30.35,West,279,0.0,4.0,88,0.00,,---,0.00,VWS V14.00,2013-04-26 12:04:00,
2013-04-26 08:09:00,41.1,39.0,30.35,West,279,2.0,4.0,92,0.00,,---,0.00,VWS V14.00,2013-04-26 12:09:00,
2013-04-26 08:14:00,41.2,37.3,30.35,West,279,3.0,4.0,86,0.00,,---,0.00,VWS V14.00,2013-04-26 12:14:00,
2013-04-26 08:19:00,41.7,37.8,30.35,West,279,2.0,4.0,86,0.00,,---,0.00,VWS V14.00,2013-04-26 12:19:00,
2013-04-26 08:24:00,42.3,38.1,30.35,NNE,24,4.0,5.0,85,0.00,,---,0.00,VWS V14.00,2013-04-26 12:24:00,
2013-04-26 08:29:00,42.9,37.8,30.34,NNE,22,3.0,5.0,82,0.00,,---,0.00,VWS V14.00,2013-04-26 12:29:00,
2013-04-26 08:30:00,43.4,37.7,30.34,North,5,3.0,6.0,80,0.00,,---,0.00,VWS V14.00,2013-04-26 12:30:00,
2013-04-26 08:34:00,43.3,37.6,30.34,North,5,4.0,6.0,80,0.00,,---,0.00,VWS V14.00,2013-04-26 12:34:00,
2013-04-26 08:39:00,43.6,37.5,30.34,North,5,3.0,5.0,79,0.00,,---,0.00,VWS V14.00,2013-04-26 12:39:00,
2013-04-26 08:44:00,43.9,37.2,30.33,NNE,25,4.0,6.0,77,0.00,,---,0.00,VWS V14.00,2013-04-26 12:44:00,
2013-04-26 08:49:00,44.2,36.8,30.34,NNE,21,4.0,7.0,75,0.00,,---,0.00,VWS V14.00,2013-04-26 12:49:00,
2013-04-26 08:54:00,44.6,37.2,30.33,NNE,25,4.0,7.0,75,0.00,,---,0.00,VWS V14.00,2013-04-26 12:54:00,
2013-04-26 08:59:00,45.2,37.4,30.34,NE,38,0.0,7.0,74,0.00,,---,0.00,VWS V14.00,2013-04-26 12:59:00,
2013-04-26 09:00:00,45.9,37.4,30.34,NNE,30,4.0,7.0,72,0.00,,---,0.00,VWS V14.00,2013-04-26 13:00:00,
2013-04-26 09:04:00,45.8,37.3,30.34,NNE,29,3.0,7.0,72,0.00,,---,0.00,VWS V14.00,2013-04-26 13:04:00,
2013-04-26 09:09:00,46.0,37.1,30.34,NNE,33,4.0,5.0,71,0.00,,---,0.00,VWS V14.00,2013-04-26 13:09:00,
2013-04-26 09:14:00,46.2,37.0,30.33,NNE,27,4.0,9.0,70,0.00,,---,0.00,VWS V14.00,2013-04-26 13:14:00,
2013-04-26 09:19:00,46.7,37.1,30.33,NNE,26,4.0,9.0,69,0.00,,---,0.00,VWS V14.00,2013-04-26 13:19:00,
2013-04-26 09:24:00,47.0,36.6,30.33,NE,36,5.0,9.0,67,0.00,,---,0.00,VWS V14.00,2013-04-26 13:24:00,
2013-04-26 09:30:00,47.4,37.0,30.34,NNE,30,4.0,9.0,67,0.00,,---,0.00,VWS V14.00,2013-04-26 13:30:00,
2013-04-26 09:35:00,47.9,36.7,30.34,NE,37,4.0,9.0,65,0.00,,---,0.00,VWS V14.00,2013-04-26 13:35:00,
2013-04-26 09:40:00,48.1,35.7,30.34,NE,40,1.0,5.0,62,0.00,,---,0.00,VWS V14.00,2013-04-26 13:40:00,
2013-04-26 09:45:00,48.8,36.8,30.34,NE,39,1.0,5.0,63,0.00,,---,0.00,VWS V14.00,2013-04-26 13:45:00,
2013-04-26 09:50:00,49.3,36.4,30.34,NE,38,1.0,5.0,61,0.00,,---,0.00,VWS V14.00,2013-04-26 13:50:00,
2013-04-26 09:55:00,49.7,36.4,30.34,NE,38,0.0,5.0,60,0.00,,---,0.00,VWS V14.00,2013-04-26 13:55:00,
2013-04-26 10:00:00,50.0,36.7,30.34,NE,39,1.0,5.0,60,0.00,,---,0.00,VWS V14.00,2013-04-26 14:00:00,
2013-04-26 10:05:00,50.4,37.0,30.34,NE,38,0.0,5.0,60,0.00,,---,0.00,VWS V14.00,2013-04-26 14:05:00,
2013-04-26 10:10:00,50.9,37.1,30.34,NE,39,0.0,1.0,59,0.00,,---,0.00,VWS V14.00,2013-04-26 14:10:00,
2013-04-26 10:15:00,51.2,37.4,30.34,NE,39,0.0,1.0,59,0.00,,---,0.00,VWS V14.00,2013-04-26 14:15:00,
2013-04-26 10:20:00,51.4,37.1,28.86,NE,39,2.0,4.0,58,0.00,,---,0.00,VWS V14.00,2013-04-26 14:20:00,
2013-04-26 10:25:00,51.5,37.2,28.86,NE,39,1.0,4.0,58,0.00,,---,0.00,VWS V14.00,2013-04-26 14:25:00,
2013-04-26 10:30:00,51.6,37.3,28.86,NE,39,0.0,4.0,58,0.00,,---,0.00,VWS V14.00,2013-04-26 14:30:00,
2013-04-26 10:35:00,51.8,37.1,28.86,NE,39,0.0,4.0,57,0.00,,---,0.00,VWS V14.00,2013-04-26 14:35:00,
2013-04-26 10:40:00,51.9,36.7,28.86,NE,38,1.0,3.0,56,0.00,,---,0.00,VWS V14.00,2013-04-26 14:40:00,
2013-04-26 10:45:00,52.5,36.8,28.86,NE,38,0.0,3.0,55,0.00,,---,0.00,VWS V14.00,2013-04-26 14:45:00,
2013-04-26 10:50:00,53.4,37.7,28.86,NE,38,0.0,3.0,55,0.00,,---,0.00,VWS V14.00,2013-04-26 14:50:00,
2013-04-26 10:55:00,54.2,38.4,28.86,NE,38,0.0,3.0,55,0.00,,---,0.00,VWS V14.00,2013-04-26 14:55:00,
2013-04-26 11:00:00,55.0,37.2,28.86,NE,39,0.0,4.0,51,0.00,,---,0.00,VWS V14.00,2013-04-26 15:00:00,
2013-04-26 11:01:00,54.8,37.0,28.86,NE,39,0.0,3.0,51,0.00,,---,0.00,VWS V14.00,2013-04-26 15:01:00,
2013-04-26 11:06:00,55.0,37.2,28.86,NE,39,0.0,4.0,51,0.00,,---,0.00,VWS V14.00,2013-04-26 15:06:00,
2013-04-26 11:11:00,54.9,36.6,28.86,NE,38,0.0,3.0,50,0.00,,---,0.00,VWS V14.00,2013-04-26 15:11:00,
2013-04-26 11:16:00,55.3,37.0,28.86,NE,39,0.0,3.0,50,0.00,,---,0.00,VWS V14.00,2013-04-26 15:16:00,
2013-04-26 11:21:00,55.9,36.5,28.86,NE,38,0.0,3.0,48,0.00,,---,0.00,VWS V14.00,2013-04-26 15:21:00,
2013-04-26 11:26:00,56.2,36.3,27.19,NE,39,0.0,3.0,47,0.00,,---,0.00,VWS V14.00,2013-04-26 15:26:00,
2013-04-26 11:30:00,57.5,38.5,27.19,NE,39,0.0,3.0,49,0.00,,---,0.00,VWS V14.00,2013-04-26 15:30:00,
2013-04-26 11:31:00,56.8,37.9,27.19,NE,38,0.0,3.0,49,0.00,,---,0.00,VWS V14.00,2013-04-26 15:31:00,
2013-04-26 11:36:00,57.5,38.5,27.19,NE,39,0.0,3.0,49,0.00,,---,0.00,VWS V14.00,2013-04-26 15:36:00,
2013-04-26 11:41:00,57.7,37.1,27.19,NE,39,0.0,1.0,46,0.00,,---,0.00,VWS V14.00,2013-04-26 15:41:00,
2013-04-26 11:46:00,57.5,38.0,27.19,ENE,57,2.0,5.0,48,0.00,,---,0.00,VWS V14.00,2013-04-26 15:46:00,
2013-04-26 11:51:00,56.9,38.5,27.19,NE,39,5.0,7.0,50,0.00,,---,0.00,VWS V14.00,2013-04-26 15:51:00,
2013-04-26 11:56:00,56.9,36.3,27.19,NE,56,3.0,9.0,46,0.00,,---,0.00,VWS V14.00,2013-04-26 15:56:00,
2013-04-26 12:00:00,57.1,38.1,27.19,NE,46,3.0,9.0,49,0.00,,---,0.00,VWS V14.00,2013-04-26 16:00:00,
2013-04-26 12:01:00,57.1,38.7,27.19,NE,56,6.0,9.0,50,0.00,,---,0.00,VWS V14.00,2013-04-26 16:01:00,
2013-04-26 12:06:00,57.2,38.2,27.19,NE,46,3.0,3.0,49,0.00,,---,0.00,VWS V14.00,2013-04-26 16:06:00,
2013-04-26 12:12:00,57.3,38.3,27.19,NE,45,3.0,4.0,49,0.00,,---,0.00,VWS V14.00,2013-04-26 16:12:00,
2013-04-26 12:17:00,57.5,37.5,27.19,NNE,30,3.0,5.0,47,0.00,,---,0.00,VWS V14.00,2013-04-26 16:17:00,
2013-04-26 12:22:00,57.5,36.9,27.19,NNE,30,4.0,5.0,46,0.00,,---,0.00,VWS V14.00,2013-04-26 16:22:00,
2013-04-26 12:27:00,57.6,37.0,27.19,NE,34,2.0,5.0,46,0.00,,---,0.00,VWS V14.00,2013-04-26 16:27:00,
2013-04-26 12:30:00,58.0,36.8,27.19,NE,50,0.0,6.0,45,0.00,,---,0.00,VWS V14.00,2013-04-26 16:30:00,
2013-04-26 12:32:00,57.8,37.2,27.19,NE,50,3.0,6.0,46,0.00,,---,0.00,VWS V14.00,2013-04-26 16:32:00,
2013-04-26 12:37:00,58.1,37.5,27.19,NE,49,0.0,0.0,46,0.00,,---,0.00,VWS V14.00,2013-04-26 16:37:00,
2013-04-26 12:42:00,58.5,36.7,27.19,NE,50,0.0,1.0,44,0.00,,---,0.00,VWS V14.00,2013-04-26 16:42:00,
2013-04-26 12:47:00,58.7,38.5,27.19,ENE,60,3.0,4.0,47,0.00,,---,0.00,VWS V14.00,2013-04-26 16:47:00,
2013-04-26 12:52:00,58.6,37.9,27.19,ENE,61,0.0,4.0,46,0.00,,---,0.00,VWS V14.00,2013-04-26 16:52:00,
2013-04-26 12:57:00,58.9,36.5,27.19,SSE,155,0.0,4.0,43,0.00,,---,0.00,VWS V14.00,2013-04-26 16:57:00,
2013-04-26 13:00:00,59.0,38.8,27.19,ESE,115,2.0,4.0,47,0.00,,---,0.00,VWS V14.00,2013-04-26 17:00:00,
2013-04-26 13:02:00,59.0,38.3,27.19,SSE,153,1.0,4.0,46,0.00,,---,0.00,VWS V14.00,2013-04-26 17:02:00,
2013-04-26 13:07:00,59.0,38.8,27.19,ESE,115,3.0,3.0,47,0.00,,---,0.00,VWS V14.00,2013-04-26 17:07:00,
2013-04-26 13:12:00,59.0,36.6,27.19,South,169,8.0,8.0,43,0.00,,---,0.00,VWS V14.00,2013-04-26 17:12:00,
2013-04-26 13:17:00,59.0,36.6,27.19,SW,217,4.0,11.0,43,0.00,,---,0.00,VWS V14.00,2013-04-26 17:17:00,
2013-04-26 13:22:00,59.4,36.3,27.19,South,176,7.0,11.0,42,0.00,,---,0.00,VWS V14.00,2013-04-26 17:22:00,
2013-04-26 13:27:00,59.3,36.2,27.19,South,190,9.0,11.0,42,0.00,,---,0.00,VWS V14.00,2013-04-26 17:27:00,
2013-04-26 13:30:00,59.8,37.3,27.19,SW,222,3.0,11.0,43,0.00,,---,0.00,VWS V14.00,2013-04-26 17:30:00,
2013-04-26 13:32:00,59.6,36.5,27.19,SSW,199,1.0,11.0,42,0.00,,---,0.00,VWS V14.00,2013-04-26 17:32:00,
2013-04-26 13:37:00,59.8,37.9,27.19,South,183,10.0,10.0,44,0.00,,---,0.00,VWS V14.00,2013-04-26 17:37:00,
2013-04-26 13:42:00,59.9,38.0,27.19,SSE,167,6.0,10.0,44,0.00,,---,0.00,VWS V14.00,2013-04-26 17:42:00,
2013-04-26 13:48:00,60.0,36.9,27.19,SSW,198,1.0,11.0,42,0.00,,---,0.00,VWS V14.00,2013-04-26 17:48:00,
2013-04-26 13:53:00,60.1,37.0,27.19,South,182,9.0,13.0,42,0.00,,---,0.00,VWS V14.00,2013-04-26 17:53:00,
2013-04-26 13:58:00,60.1,37.0,27.19,SSE,163,1.0,13.0,42,0.00,,---,0.00,VWS V14.00,2013-04-26 17:58:00,
2013-04-26 14:00:00,60.4,37.8,27.19,South,185,6.0,13.0,43,0.00,,---,0.00,VWS V14.00,2013-04-26 18:00:00,
2013-04-26 14:03:00,60.3,37.1,27.19,South,180,3.0,13.0,42,0.00,,---,0.00,VWS V14.00,2013-04-26 18:03:00,
2013-04-26 14:08:00,60.4,37.8,27.19,South,186,0.0,6.0,43,0.00,,---,0.00,VWS V14.00,2013-04-26 18:08:00,
2013-04-26 14:13:00,60.5,38.5,27.19,SSE,159,4.0,9.0,44,0.00,,---,0.00,VWS V14.00,2013-04-26 18:13:00,
2013-04-26 14:18:00,60.4,39.0,27.19,SSE,162,6.0,10.0,45,0.00,,---,0.00,VWS V14.00,2013-04-26 18:18:00,
2013-04-26 14:23:00,60.6,40.3,27.19,SSE,160,2.0,10.0,47,0.00,,---,0.00,VWS V14.00,2013-04-26 18:23:00,
2013-04-26 14:28:00,60.8,38.8,27.19,South,174,11.0,12.0,44,0.00,,---,0.00,VWS V14.00,2013-04-26 18:28:00,
2013-04-26 14:30:00,61.1,37.9,27.19,South,171,0.0,12.0,42,0.00,,---,0.00,VWS V14.00,2013-04-26 18:30:00,
2013-04-26 14:33:00,60.9,37.7,27.19,SSW,192,9.0,12.0,42,0.00,,---,0.00,VWS V14.00,2013-04-26 18:33:00,
2013-04-26 14:38:00,61.2,38.5,27.19,South,171,3.0,3.0,43,0.00,,---,0.00,VWS V14.00,2013-04-26 18:38:00,
2013-04-26 14:43:00,61.6,39.5,27.19,South,173,4.0,5.0,44,0.00,,---,0.00,VWS V14.00,2013-04-26 18:43:00,
2013-04-26 14:48:00,61.6,39.5,27.19,South,180,0.0,9.0,44,0.00,,---,0.00,VWS V14.00,2013-04-26 18:48:00,
2013-04-26 14:53:00,61.6,38.9,27.19,SSW,197,4.0,9.0,43,0.00,,---,0.00,VWS V14.00,2013-04-26 18:53:00,
2013-04-26 14:58:00,61.6,38.9,27.19,SSE,158,6.0,9.0,43,0.00,,---,0.00,VWS V14.00,2013-04-26 18:58:00,
2013-04-26 15:00:00,61.7,39.6,27.19,SSE,168,2.0,9.0,44,0.00,,---,0.00,VWS V14.00,2013-04-26 19:00:00,
2013-04-26 15:03:00,61.6,38.3,27.19,SSE,168,3.0,9.0,42,0.00,,---,0.00,VWS V14.00,2013-04-26 19:03:00,
2013-04-26 15:08:00,61.7,38.4,27.19,SSE,156,3.0,5.0,42,0.00,,---,0.00,VWS V14.00,2013-04-26 19:08:00,
2013-04-26 15:14:00,61.7,39.6,27.19,SSE,155,2.0,5.0,44,0.00,,---,0.00,VWS V14.00,2013-04-26 19:14:00,
2013-04-26 15:19:00,61.8,37.9,27.19,South,171,4.0,7.0,41,0.00,,---,0.00,VWS V14.00,2013-04-26 19:19:00,
2013-04-26 15:24:00,61.9,38.0,27.19,SE,142,0.0,7.0,41,0.00,,---,0.00,VWS V14.00,2013-04-26 19:24:00,
2013-04-26 15:29:00,62.2,38.8,27.19,SW,217,0.0,7.0,42,0.00,,---,0.00,VWS V14.00,2013-04-26 19:29:00,
2013-04-26 15:30:00,62.3,38.3,27.19,ESE,119,1.0,7.0,41,0.00,,---,0.00,VWS V14.00,2013-04-26 19:30:00,
2013-04-26 15:34:00,62.3,38.3,27.19,ESE,119,1.0,7.0,41,0.00,,---,0.00,VWS V14.00,2013-04-26 19:34:00,
2013-04-26 15:39:00,62.2,38.8,27.19,ESE,119,1.0,3.0,42,0.00,,---,0.00,VWS V14.00,2013-04-26 19:39:00,
2013-04-26 15:44:00,62.1,39.4,27.19,ESE,122,4.0,11.0,43,0.00,,---,0.00,VWS V14.00,2013-04-26 19:44:00,
2013-04-26 15:49:00,62.1,40.5,27.19,SSE,150,5.0,11.0,45,0.00,,---,0.00,VWS V14.00,2013-04-26 19:49:00,
2013-04-26 15:54:00,62.1,40.0,27.19,SE,140,4.0,11.0,44,0.00,,---,0.00,VWS V14.00,2013-04-26 19:54:00,
2013-04-26 15:59:00,62.2,38.8,27.19,SSE,165,6.0,11.0,42,0.00,,---,0.00,VWS V14.00,2013-04-26 19:59:00,
2013-04-26 16:00:00,62.1,38.1,27.19,SSE,152,5.0,13.0,41,0.00,,---,0.00,VWS V14.00,2013-04-26 20:00:00,
2013-04-26 16:04:00,62.1,38.8,27.19,SSE,152,6.0,13.0,42,0.00,,---,0.00,VWS V14.00,2013-04-26 20:04:00,
2013-04-26 16:09:00,62.3,38.3,27.19,SSE,155,5.0,6.0,41,0.00,,---,0.00,VWS V14.00,2013-04-26 20:09:00,
2013-04-26 16:14:00,62.4,39.0,27.19,SSE,156,4.0,6.0,42,0.00,,---,0.00,VWS V14.00,2013-04-26 20:14:00,
2013-04-26 16:19:00,62.6,39.2,27.19,SSE,160,2.0,7.0,42,0.00,,---,0.00,VWS V14.00,2013-04-26 20:19:00,
2013-04-26 16:24:00,62.5,39.1,27.19,SE,145,2.0,7.0,42,0.00,,---,0.00,VWS V14.00,2013-04-26 20:24:00,
2013-04-26 16:29:00,62.4,38.4,27.19,SSE,161,0.0,9.0,41,0.00,,---,0.00,VWS V14.00,2013-04-26 20:29:00,
2013-04-26 16:30:00,62.6,39.8,27.19,South,175,4.0,11.0,43,0.00,,---,0.00,VWS V14.00,2013-04-26 20:30:00,
2013-04-26 16:34:00,62.6,39.2,27.19,South,176,7.0,11.0,42,0.00,,---,0.00,VWS V14.00,2013-04-26 20:34:00,
2013-04-26 16:39:00,62.6,39.8,27.19,SSE,165,4.0,8.0,43,0.00,,---,0.00,VWS V14.00,2013-04-26 20:39:00,
2013-04-26 16:44:00,62.7,39.3,27.19,SSE,165,0.0,8.0,42,0.00,,---,0.00,VWS V14.00,2013-04-26 20:44:00,
2013-04-26 16:50:00,62.7,39.9,27.19,SSE,159,5.0,9.0,43,0.00,,---,0.00,VWS V14.00,2013-04-26 20:50:00,
2013-04-26 16:55:00,62.6,40.4,27.19,SSE,163,6.0,13.0,44,0.00,,---,0.00,VWS V14.00,2013-04-26 20:55:00,
2013-04-26 17:00:00,62.5,39.7,27.19,SSE,163,5.0,13.0,43,0.00,,---,0.00,VWS V14.00,2013-04-26 21:00:00,
2013-04-26 17:05:00,62.6,40.4,27.19,South,180,13.0,15.0,44,0.00,,---,0.00,VWS V14.00,2013-04-26 21:05:00,
2013-04-26 17:10:00,62.6,39.8,27.19,South,176,4.0,11.0,43,0.00,,---,0.00,VWS V14.00,2013-04-26 21:10:00,
2013-04-26 17:15:00,62.6,39.8,27.19,SSE,160,4.0,13.0,43,0.00,,---,0.00,VWS V14.00,2013-04-26 21:15:00,
2013-04-26 17:20:00,62.6,39.2,27.19,South,172,4.0,13.0,42,0.00,,---,0.00,VWS V14.00,2013-04-26 21:20:00,
2013-04-26 17:25:00,62.7,41.1,27.19,SSE,167,5.0,13.0,45,0.00,,---,0.00,VWS V14.00,2013-04-26 21:25:00,
2013-04-26 17:30:00,62.7,39.3,27.19,South,184,9.0,13.0,42,0.00,,---,0.00,VWS V14.00,2013-04-26 21:30:00,
2013-04-26 17:35:00,62.7,39.9,27.19,South,183,11.0,14.0,43,0.00,,---,0.00,VWS V14.00,2013-04-26 21:35:00,
2013-04-26 17:40:00,62.7,39.9,27.19,South,178,7.0,11.0,43,0.00,,---,0.00,VWS V14.00,2013-04-26 21:40:00,
2013-04-26 17:45:00,62.7,39.3,27.19,South,187,10.0,13.0,42,0.00,,---,0.00,VWS V14.00,2013-04-26 21:45:00,
2013-04-26 17:50:00,62.6,40.4,27.19,South,174,3.0,13.0,44,0.00,,---,0.00,VWS V14.00,2013-04-26 21:50:00,
2013-04-26 17:55:00,62.4,39.6,27.19,South,190,6.0,13.0,43,0.00,,---,0.00,VWS V14.00,2013-04-26 21:55:00,
2013-04-26 18:00:00,62.2,40.0,27.19,SSE,150,9.0,13.0,44,0.00,,---,0.00,VWS V14.00,2013-04-26 22:00:00,
2013-04-26 18:05:00,62.2,40.6,27.19,SSE,162,5.0,13.0,45,0.00,,---,0.00,VWS V14.00,2013-04-26 22:05:00,
2013-04-26 18:10:00,62.1,40.0,27.19,South,178,7.0,9.0,44,0.00,,---,0.00,VWS V14.00,2013-04-26 22:10:00,
2013-04-26 18:15:00,62.1,40.0,27.19,SSE,165,6.0,9.0,44,0.00,,---,0.00,VWS V14.00,2013-04-26 22:15:00,
2013-04-26 18:21:00,61.8,40.3,27.19,SSE,163,4.0,9.0,45,0.00,,---,0.00,VWS V14.00,2013-04-26 22:21:00,
2013-04-26 18:26:00,61.7,41.3,25.19,SSE,152,5.0,9.0,47,0.00,,---,0.00,VWS V14.00,2013-04-26 22:26:00,
2013-04-26 18:30:00,61.5,43.7,25.19,SSE,156,4.0,9.0,52,0.00,,---,0.00,VWS V14.00,2013-04-26 22:30:00,
2013-04-26 18:31:00,61.6,40.6,25.19,SSE,157,5.0,9.0,46,0.00,,---,0.00,VWS V14.00,2013-04-26 22:31:00,
2013-04-26 18:36:00,61.5,42.7,25.19,SSE,156,4.0,9.0,50,0.00,,---,0.00,VWS V14.00,2013-04-26 22:36:00,
2013-04-26 18:41:00,61.3,43.0,25.19,SE,128,4.0,9.0,51,0.00,,---,0.00,VWS V14.00,2013-04-26 22:41:00,
2013-04-26 18:46:00,61.3,43.0,25.19,SE,130,6.0,9.0,51,0.00,,---,0.00,VWS V14.00,2013-04-26 22:46:00,
2013-04-26 18:51:00,61.3,44.0,25.19,SE,142,9.0,10.0,53,0.00,,---,0.00,VWS V14.00,2013-04-26 22:51:00,
2013-04-26 18:56:00,61.4,41.6,25.19,SE,142,9.0,10.0,48,0.00,,---,0.00,VWS V14.00,2013-04-26 22:56:00,
2013-04-26 19:00:00,61.5,44.7,25.19,SE,142,5.0,11.0,54,0.00,,---,0.00,VWS V14.00,2013-04-26 23:00:00,
2013-04-26 19:01:00,61.6,41.7,25.19,SE,139,10.0,11.0,48,0.00,,---,0.00,VWS V14.00,2013-04-26 23:01:00,
2013-04-26 19:06:00,61.5,44.7,25.19,SE,142,5.0,11.0,54,0.00,,---,0.00,VWS V14.00,2013-04-26 23:06:00,
2013-04-26 19:11:00,61.3,43.0,25.19,SE,146,6.0,9.0,51,0.00,,---,0.00,VWS V14.00,2013-04-26 23:11:00,
2013-04-26 19:16:00,61.3,43.5,25.19,SSE,149,9.0,10.0,52,0.00,,---,0.00,VWS V14.00,2013-04-26 23:16:00,
2013-04-26 19:21:00,61.3,43.0,25.19,SSE,150,5.0,10.0,51,0.00,,---,0.00,VWS V14.00,2013-04-26 23:21:00,
2013-04-26 19:26:00,61.3,44.0,25.19,SSE,149,4.0,10.0,53,0.00,,---,0.00,VWS V14.00,2013-04-26 23:26:00,
2013-04-26 19:30:00,61.1,43.4,26.21,SSE,147,4.0,10.0,52,0.00,,---,0.00,VWS V14.00,2013-04-26 23:30:00,
2013-04-26 19:31:00,61.2,44.0,26.21,SSE,147,3.0,10.0,53,0.00,,---,0.00,VWS V14.00,2013-04-26 23:31:00,
2013-04-26 19:37:00,61.1,42.3,26.21,SE,146,4.0,5.0,50,0.00,,---,0.00,VWS V14.00,2013-04-26 23:37:00,
2013-04-26 19:42:00,61.1,43.4,26.21,SE,139,7.0,9.0,52,0.00,,---,0.00,VWS V14.00,2013-04-26 23:42:00,
2013-04-26 19:47:00,61.0,44.2,26.21,SE,144,4.0,9.0,54,0.00,,---,0.00,VWS V14.00,2013-04-26 23:47:00,
2013-04-26 19:52:00,61.0,44.7,26.21,SSE,155,6.0,9.0,55,0.00,,---,0.00,VWS V14.00,2013-04-26 23:52:00,
2013-04-26 20:00:00,61.2,43.0,26.21,SSE,161,5.0,11.0,51,0.00,,---,0.00,VWS V14.00,2013-04-27 00:00:00,
2013-04-26 20:05:00,61.2,42.4,26.21,SSE,159,3.0,11.0,50,0.00,,---,0.00,VWS V14.00,2013-04-27 00:05:00,
2013-04-26 20:11:00,61.1,42.8,26.21,SE,145,11.0,11.0,51,0.00,,---,0.00,VWS V14.00,2013-04-27 00:11:00,
2013-04-26 20:16:00,61.0,43.8,27.05,SSE,155,4.0,11.0,53,0.00,,---,0.00,VWS V14.00,2013-04-27 00:16:00,
2013-04-26 20:21:00,60.8,42.6,27.05,SSE,156,5.0,11.0,51,0.00,,---,0.00,VWS V14.00,2013-04-27 00:21:00,
2013-04-26 20:26:00,60.8,44.5,27.05,SSE,157,4.0,11.0,55,0.00,,---,0.00,VWS V14.00,2013-04-27 00:26:00,
2013-04-26 20:30:00,60.1,41.4,27.05,SSE,157,0.0,11.0,50,0.00,,---,0.00,VWS V14.00,2013-04-27 00:30:00,
2013-04-26 20:31:00,60.4,42.7,27.05,SSE,157,0.0,11.0,52,0.00,,---,0.00,VWS V14.00,2013-04-27 00:31:00,
2013-04-26 20:36:00,60.1,41.4,27.05,SSE,157,0.0,11.0,50,0.00,,---,0.00,VWS V14.00,2013-04-27 00:36:00,
2013-04-26 20:41:00,59.8,40.6,26.93,SSE,157,0.0,0.0,49,0.00,,---,0.00,VWS V14.00,2013-04-27 00:41:00,
2013-04-26 20:46:00,59.5,39.3,26.93,SSE,157,0.0,2.0,47,0.00,,---,0.00,VWS V14.00,2013-04-27 00:46:00,
2013-04-26 20:51:00,59.3,39.1,26.93,SSE,157,0.0,3.0,47,0.00,,---,0.00,VWS V14.00,2013-04-27 00:51:00,
2013-04-26 20:56:00,59.3,39.1,26.93,SSE,157,0.0,3.0,47,0.00,,---,0.00,VWS V14.00,2013-04-27 00:56:00,
2013-04-26 21:00:00,59.0,39.4,26.93,SSE,157,0.0,3.0,48,0.00,,---,0.00,VWS V14.00,2013-04-27 01:00:00,
2013-04-26 21:01:00,59.0,40.4,26.93,SSE,157,0.0,3.0,50,0.00,,---,0.00,VWS V14.00,2013-04-27 01:01:00,
2013-04-26 21:06:00,58.9,39.3,26.93,SSE,157,0.0,0.0,48,0.00,,---,0.00,VWS V14.00,2013-04-27 01:06:00,
2013-04-26 21:11:00,58.3,39.2,26.93,SSE,157,0.0,0.0,49,0.00,,---,0.00,VWS V14.00,2013-04-27 01:11:00,
2013-04-26 21:16:00,57.9,39.4,26.93,SSE,157,0.0,0.0,50,0.00,,---,0.00,VWS V14.00,2013-04-27 01:16:00,
2013-04-26 21:21:00,57.5,38.5,26.93,SSE,157,0.0,2.0,49,0.00,,---,0.00,VWS V14.00,2013-04-27 01:21:00,
2013-04-26 21:27:00,57.2,38.8,29.36,SSE,157,0.0,2.0,50,0.00,,---,0.00,VWS V14.00,2013-04-27 01:27:00,
2013-04-26 21:30:00,56.8,39.4,28.75,SSE,157,0.0,2.0,52,0.00,,---,0.00,VWS V14.00,2013-04-27 01:30:00,
2013-04-26 21:32:00,57.1,38.7,29.36,SSE,157,0.0,2.0,50,0.00,,---,0.00,VWS V14.00,2013-04-27 01:32:00,
2013-04-26 21:37:00,56.8,39.4,28.75,SSE,157,0.0,0.0,52,0.00,,---,0.00,VWS V14.00,2013-04-27 01:37:00,
2013-04-26 21:42:00,56.4,38.5,28.75,SSE,157,0.0,0.0,51,0.00,,---,0.00,VWS V14.00,2013-04-27 01:42:00,
2013-04-26 21:47:00,56.1,39.2,28.75,SSE,157,0.0,0.0,53,0.00,,---,0.00,VWS V14.00,2013-04-27 01:47:00,
2013-04-26 21:52:00,55.8,38.9,28.75,SSE,157,0.0,0.0,53,0.00,,---,0.00,VWS V14.00,2013-04-27 01:52:00,
2013-04-26 21:57:00,55.5,39.1,28.75,SSE,157,0.0,1.0,54,0.00,,---,0.00,VWS V14.00,2013-04-27 01:57:00,
2013-04-26 22:00:00,55.1,40.2,28.75,SSE,157,0.0,1.0,57,0.00,,---,0.00,VWS V14.00,2013-04-27 02:00:00,
2013-04-26 22:02:00,55.4,39.5,28.75,SSE,157,0.0,1.0,55,0.00,,---,0.00,VWS V14.00,2013-04-27 02:02:00,
2013-04-26 22:07:00,55.1,40.2,28.75,SSE,157,0.0,1.0,57,0.00,,---,0.00,VWS V14.00,2013-04-27 02:07:00,
2013-04-26 22:12:00,54.8,40.8,32.43,SSE,157,0.0,1.0,59,0.00,,---,0.00,VWS V14.00,2013-04-27 02:12:00,
2013-04-26 22:17:00,54.5,40.0,32.43,SSE,157,2.0,2.0,58,0.00,,---,0.00,VWS V14.00,2013-04-27 02:17:00,
2013-04-26 22:22:00,54.5,41.8,32.43,SSE,157,0.0,2.0,62,0.00,,---,0.00,VWS V14.00,2013-04-27 02:22:00,
2013-04-26 22:27:00,54.6,41.4,32.43,SSE,157,0.0,2.0,61,0.00,,---,0.00,VWS V14.00,2013-04-27 02:27:00,
2013-04-26 22:30:00,54.6,41.9,32.43,SSE,157,1.0,2.0,62,0.00,,---,0.00,VWS V14.00,2013-04-27 02:30:00,
2013-04-26 22:32:00,54.7,42.0,32.43,SSE,157,0.0,2.0,62,0.00,,---,0.00,VWS V14.00,2013-04-27 02:32:00,
2013-04-26 22:38:00,54.6,41.9,32.43,SSE,157,0.0,2.0,62,0.00,,---,0.00,VWS V14.00,2013-04-27 02:38:00,
2013-04-26 22:43:00,54.5,41.8,30.20,SSE,157,1.0,2.0,62,0.00,,---,0.00,VWS V14.00,2013-04-27 02:43:00,
2013-04-26 22:48:00,54.2,41.5,30.20,SSE,168,0.0,2.0,62,0.00,,---,0.00,VWS V14.00,2013-04-27 02:48:00,
2013-04-26 22:53:00,54.0,41.7,30.21,SSE,168,0.0,2.0,63,0.00,,---,0.00,VWS V14.00,2013-04-27 02:53:00,
2013-04-26 22:58:00,54.1,41.8,29.42,SSE,168,0.0,3.0,63,0.00,,---,0.00,VWS V14.00,2013-04-27 02:58:00,
2013-04-26 23:00:00,53.9,42.0,30.13,SSE,168,0.0,3.0,64,0.00,,---,0.00,VWS V14.00,2013-04-27 03:00:00,
2013-04-26 23:03:00,54.0,42.1,29.42,SSE,168,0.0,3.0,64,0.00,,---,0.00,VWS V14.00,2013-04-27 03:03:00,
2013-04-26 23:08:00,53.7,41.8,30.13,SSE,168,0.0,0.0,64,0.00,,---,0.00,VWS V14.00,2013-04-27 03:08:00,
2013-04-26 23:13:00,53.4,41.5,30.22,SSE,168,0.0,0.0,64,0.00,,---,0.00,VWS V14.00,2013-04-27 03:13:00,
2013-04-26 23:18:00,53.3,42.6,30.02,SSE,168,0.0,0.0,67,0.00,,---,0.00,VWS V14.00,2013-04-27 03:18:00,
2013-04-26 23:23:00,53.0,41.6,30.22,SSE,168,0.0,0.0,65,0.00,,---,0.00,VWS V14.00,2013-04-27 03:23:00,
2013-04-26 23:28:00,52.8,41.0,30.22,SSE,168,0.0,0.0,64,0.00,,---,0.00,VWS V14.00,2013-04-27 03:28:00,
2013-04-26 23:30:00,52.4,40.6,30.13,SSE,168,1.0,2.0,64,0.00,,---,0.00,VWS V14.00,2013-04-27 03:30:00,
2013-04-26 23:33:00,52.6,40.8,30.13,SSE,168,0.0,1.0,64,0.00,,---,0.00,VWS V14.00,2013-04-27 03:33:00,
2013-04-26 23:38:00,52.4,40.6,30.23,SSE,168,0.0,2.0,64,0.00,,---,0.00,VWS V14.00,2013-04-27 03:38:00,
2013-04-26 23:43:00,52.3,40.5,30.23,SSE,168,0.0,2.0,64,0.00,,---,0.00,VWS V14.00,2013-04-27 03:43:00,
2013-04-26 23:48:00,52.0,40.6,30.23,SSE,168,1.0,2.0,65,0.00,,---,0.00,VWS V14.00,2013-04-27 03:48:00,
2013-04-26 23:53:00,51.9,40.5,30.23,SSE,168,0.0,2.0,65,0.00,,---,0.00,VWS V14.00,2013-04-27 03:53:00,
2013-04-26 23:59:00,51.9,40.5,30.23,South,169,0.0,2.0,65,0.00,,---,0.00,VWS V14.00,2013-04-27 03:59:00,